Home > Weather > Langesund > Past weeks

Flag for Norway Past Weather in Langesund, Norway — Yesterday and Last 2 Weeks

Now
65 °F

Mild.


Feels Like: 65 °F
Forecast: 51 / 64 °F
Wind: 13 mph from Southwest

Location: Jomfruland Fyr

Current Time: Jul 26, 2016 at 2:18:40 PM

Latest Report: Jul 26, 2016 at 1:00 PM


Visibility: N/A

Pressure: 29.93 "Hg

Humidity: 75%

Dew Point: 57 °F

Location of LangesundLocation

Past Weather in Langesund — Graph

°F

Langesund Temperature Yesterday

Maximum temperature yesterday: 69 °F (at 10:00 AM)
Minimum temperature yesterday: 61 °F (at 5:00 PM)
Average temperature yesterday: 66 °F

High & Low Weather Summary for the Past Weeks

 TemperatureHumidityPressure
High73 °F (Jul 24, 3:00 PM)95% (Jul 19, 4:00 AM)30.15 "Hg (Jul 19, 4:00 AM)
Low54 °F (Jul 17, 6:00 AM)38% (Jul 16, 7:00 PM)29.44 "Hg (Jul 11, 1:00 PM)
Average64 °F81%29.91 "Hg
* Reported Jul 11 1:00 PM — Jul 26 1:00 PM, Langesund, Weather by CustomWeather, © 2016

Note: Actual official high and low records may vary slightly from our data, if they occured in-between our weather recording intervals... More about our weather records

Advertising

Langesund Weather History for the Previous 24 Hours

Scroll right to see more
 ConditionsComfort  
Time TempWeatherWind HumidityBarometerVisibility
1:00 PM
Tue, Jul 26
65 °FMild.13 mph75%29.93 "HgN/A
12:00 PM65 °FMild.12 mph75%29.93 "HgN/A
11:00 AM65 °FMild.12 mph74%29.93 "HgN/A
10:00 AM64 °FMild.10 mph75%29.93 "HgN/A
9:00 AM62 °FCool.10 mph80%29.92 "HgN/A
8:00 AM62 °FCool.9 mph83%29.91 "HgN/A
7:00 AM63 °FMild.9 mph83%29.90 "HgN/A
6:00 AM62 °FCool.8 mph86%29.90 "HgN/A
5:00 AM63 °FMild.8 mph87%29.90 "HgN/A
4:00 AM64 °FMild.6 mph89%29.90 "HgN/A
3:00 AM65 °FMild.5 mph89%29.91 "HgN/A
2:00 AM65 °FMild.8 mph91%29.92 "HgN/A
1:00 AM65 °FMild.7 mph93%29.93 "HgN/A
12:00 AM65 °FMild.5 mph91%29.94 "HgN/A
11:00 PM
Mon, Jul 25
65 °FMild.5 mph90%29.95 "HgN/A
10:00 PM64 °FMild.3 mph90%29.96 "HgN/A
9:00 PM64 °FMild.3 mph89%29.96 "HgN/A
8:00 PM64 °FMild.2 mph88%29.97 "HgN/A
7:00 PM64 °FMild.2 mph87%29.98 "HgN/A
6:00 PM63 °FMild.5 mph86%29.99 "HgN/A
5:00 PM61 °FCool.3 mph88%29.99 "HgN/A
4:00 PM62 °FCool.3 mph92%30.01 "HgN/A
3:00 PM63 °FMild.7 mph88%30.02 "HgN/A
2:00 PM65 °FMild.7 mph91%30.01 "HgN/A
Weather by CustomWeather, © 2016

See weather overviewHow to use our weather pages